�������C�����ː����j�^�v���󋵏��
Date,Time,Cs137(Bq/L),Cs134(Bq/L),�S��(Bq/L)
2017/07/17,00:00,0.92,0.095,ND
2017/07/17,00:10,0.92,0.10,ND
2017/07/17,00:20,0.90,0.11,ND
2017/07/17,00:30,0.93,0.080,ND
2017/07/17,00:40,0.91,0.075,ND
2017/07/17,00:50,0.90,0.064,ND
2017/07/17,01:00,0.92,0.056,ND
2017/07/17,01:10,0.89,0.049,ND
2017/07/17,01:20,0.83,0.045,ND
2017/07/17,01:30,0.81,0.053,ND
2017/07/17,01:40,0.80,0.052,ND
2017/07/17,01:50,0.80,0.045,ND
2017/07/17,02:00,0.82,0.026,ND
2017/07/17,02:10,0.88,ND,ND
2017/07/17,02:20,0.88,ND,ND
2017/07/17,02:30,0.93,ND,ND
2017/07/17,02:40,0.95,ND,ND
2017/07/17,02:50,0.93,ND,ND
2017/07/17,03:00,0.87,0.030,ND
2017/07/17,03:10,0.79,0.049,ND
2017/07/17,03:20,0.79,0.040,ND
2017/07/17,03:30,0.79,0.029,ND
2017/07/17,03:40,0.77,0.035,ND
2017/07/17,03:50,0.79,0.042,ND
2017/07/17,04:00,0.83,0.036,ND
2017/07/17,04:10,0.83,0.034,ND
2017/07/17,04:20,0.91,0.035,ND
2017/07/17,04:30,0.86,0.041,ND
2017/07/17,04:40,0.86,0.046,ND
2017/07/17,04:50,0.90,0.041,ND
2017/07/17,05:00,0.82,0.045,ND
2017/07/17,05:10,0.80,0.051,ND
2017/07/17,05:20,0.76,0.055,ND
2017/07/17,05:30,0.74,0.053,ND
2017/07/17,05:40,0.75,0.043,ND
2017/07/17,05:50,0.75,0.038,ND
2017/07/17,06:00,0.74,0.029,ND
2017/07/17,06:10,0.82,ND,ND
2017/07/17,06:20,0.81,ND,ND
2017/07/17,06:30,0.79,ND,ND
2017/07/17,06:40,0.78,ND,ND
2017/07/17,06:50,0.73,ND,ND
2017/07/17,07:00,0.73,ND,ND
2017/07/17,07:10,0.73,ND,ND
2017/07/17,07:20,0.71,0.026,ND
2017/07/17,07:30,0.69,0.045,ND
2017/07/17,07:40,0.69,0.045,ND
2017/07/17,07:50,0.67,0.055,ND
2017/07/17,08:00,0.67,0.050,ND
2017/07/17,08:10,0.67,0.046,ND
2017/07/17,08:20,0.66,0.032,ND
2017/07/17,08:30,0.67,0.029,ND
2017/07/17,08:40,0.73,ND,ND
2017/07/17,08:50,0.73,ND,ND
2017/07/17,09:00,0.73,0.025,ND
2017/07/17,09:10,0.71,0.029,ND
2017/07/17,09:20,0.72,0.032,ND
2017/07/17,09:30,0.70,0.036,ND
2017/07/17,09:40,0.70,0.033,ND
2017/07/17,09:50,0.66,0.032,ND
2017/07/17,10:00,0.65,0.025,ND
2017/07/17,10:10,0.64,0.029,ND
2017/07/17,10:20,0.64,0.029,ND
2017/07/17,10:30,0.71,ND,ND
2017/07/17,10:40,0.67,0.031,ND
2017/07/17,10:50,0.74,0.032,ND
2017/07/17,11:00,0.75,0.029,ND
2017/07/17,11:10,0.68,0.034,ND
2017/07/17,11:20,0.73,0.034,ND
2017/07/17,11:30,0.67,0.036,ND
2017/07/17,11:40,0.68,0.028,ND
2017/07/17,11:50,0.68,0.028,ND
2017/07/17,12:00,0.73,ND,ND
2017/07/17,12:10,0.76,ND,ND
2017/07/17,12:20,0.73,ND,ND
2017/07/17,12:30,0.73,ND,ND
2017/07/17,12:40,0.74,0.030,ND
2017/07/17,12:50,0.70,0.031,ND
2017/07/17,13:00,0.71,0.038,ND
2017/07/17,13:10,0.71,0.042,ND
2017/07/17,13:20,0.70,0.044,ND
2017/07/17,13:30,0.73,0.038,ND
2017/07/17,13:40,0.74,0.038,ND
2017/07/17,13:50,0.72,0.051,ND
2017/07/17,14:00,0.75,0.055,ND
2017/07/17,14:10,0.79,0.053,ND
2017/07/17,14:20,0.81,0.053,ND
2017/07/17,14:30,0.79,0.054,ND
2017/07/17,14:40,0.82,0.052,ND
2017/07/17,14:50,0.82,0.044,ND
2017/07/17,15:00,0.82,0.042,ND
2017/07/17,15:10,0.81,0.040,ND
2017/07/17,15:20,0.80,0.039,ND
2017/07/17,15:30,0.80,0.032,ND
2017/07/17,15:40,0.80,0.036,ND
2017/07/17,15:50,0.81,0.044,ND
2017/07/17,16:00,0.82,0.045,ND
2017/07/17,16:10,0.82,0.043,ND
2017/07/17,16:20,0.80,0.051,ND
2017/07/17,16:30,0.82,0.045,ND
2017/07/17,16:40,0.83,0.043,ND
2017/07/17,16:50,0.84,0.033,ND
2017/07/17,17:00,0.84,0.041,ND
2017/07/17,17:10,0.85,0.038,ND
2017/07/17,17:20,0.85,0.044,ND
2017/07/17,17:30,0.87,0.041,ND
2017/07/17,17:40,0.84,0.044,ND
2017/07/17,17:50,0.86,0.043,ND
2017/07/17,18:00,0.89,0.052,ND
2017/07/17,18:10,0.85,0.042,ND
2017/07/17,18:20,0.89,0.040,9.7
2017/07/17,18:30,0.84,0.040,9.9
2017/07/17,18:40,0.90,0.036,8.8
2017/07/17,18:50,0.89,0.032,ND
2017/07/17,19:00,0.85,ND,ND
2017/07/17,19:10,0.84,ND,ND
2017/07/17,19:20,0.85,ND,ND
2017/07/17,19:30,0.84,ND,ND
2017/07/17,19:40,0.82,ND,ND
2017/07/17,19:50,0.81,ND,ND
2017/07/17,20:00,0.75,0.036,ND
2017/07/17,20:10,0.75,0.032,ND
2017/07/17,20:20,0.73,0.031,ND
2017/07/17,20:30,0.71,0.035,ND
2017/07/17,20:40,0.67,0.063,ND
2017/07/17,20:50,0.72,0.034,ND
2017/07/17,21:00,0.72,0.027,ND
2017/07/17,21:10,0.77,ND,ND
2017/07/17,21:20,0.77,ND,ND
2017/07/17,21:30,0.74,0.033,ND
2017/07/17,21:40,0.72,0.036,ND
2017/07/17,21:50,0.73,0.032,ND
2017/07/17,22:00,0.74,0.041,ND
2017/07/17,22:10,0.73,0.046,ND
2017/07/17,22:20,0.73,0.037,ND
2017/07/17,22:30,0.73,0.031,ND
2017/07/17,22:40,0.75,0.031,ND
2017/07/17,22:50,0.78,ND,ND
2017/07/17,23:00,0.76,ND,ND
2017/07/17,23:10,0.71,0.026,ND
2017/07/17,23:20,0.76,ND,ND
2017/07/17,23:30,0.76,ND,ND
2017/07/17,23:40,0.76,ND,ND
2017/07/17,23:50,0.78,ND,ND
